Location: Newark
(31.0436°N, 112.2008°E)
Time: 02:34:03
(UTC+00:00)

LightSail 2 - Pass Details

Date: 25 January 2020
Orbit: 698 x 724 km, 24.0° (Epoch: 26 February)

Event Time Altitude Azimuth Distance (km) Brightness Sun altitude
Rises 12:24:36 0° 261° (W) 3,083 9.6 -30.9°
Reaches altitude 10° 12:27:28 10° 247° (WSW) 2,169 8.4 -31.6°
Enters shadow 12:30:46 22° 207° (SSW) 1,517 7.1 -32.3°
